Notices

What’s New in latest Release from January 14th 2021:

·       In Historical Hourly Data Report, users can switch between Local Standard Time (LST) and Universal Time Coordinates (UTC) time.

·       In Historical Hourly Data Report, we have an addition of a new column to display hourly precipitation data for the stations where the data are available, from 2001 onwards.

·       Expanded the Search Options of the Canadian Historical Weather Radar, users now able to select 24 hours (1 image every hour) image viewing duration.

Please note that the IDF dataset is available through this link: Intensity-Duration-Frequency (IDF) Files .

Hourly Data Report for November 13, 2019

QUALICUM BEACH AIRPORT
BRITISH COLUMBIA
Current Station Operator: ECCC - MSC

49°20'14.000" N
124°23'38.000" W
58.20 m
1026562
71766
VOQ

Download Data

Hourly Data (November 2019)
Hourly Data Report for November 13, 2019
TIME
LST
Temp Definition
°C
Dew Point Definition
°C
Rel Hum Definition
%
Precip. Amount Definition
mm

Wind Dir Definition
10's deg

Wind Spd Definition
km/h
Visibility Definition
km
Stn Press Definition
kPa
Hmdx Definition


Wind Chill Definition


Weather Definition


00:00 8.8 8.4 97 LegendMM 30 4   101.53     LegendNANA
01:00 8.9 8.5 97 LegendMM 28 2   101.54     LegendNANA
02:00 8.8 8.4 97 LegendMM 29 4   101.54     LegendNANA
03:00 8.7 8.3 97 LegendMM 28 3   101.56     LegendNANA
04:00 8.5 8.1 97 LegendMM 5 2   101.52     LegendNANA
05:00 8.5 8.1 97 LegendMM   0   101.52     LegendNANA
06:00 8.5 8.1 97 LegendMM 25 1   101.51     LegendNANA
07:00 8.4 8.0 97 LegendMM   0   101.54     LegendNANA
08:00 8.4 8.0 98 LegendMM   0   101.54     LegendNANA
09:00 8.9 8.5 98 LegendMM   0   101.56     LegendNANA
10:00 9.4 9.0 97 LegendMM 5 2   101.56     LegendNANA
11:00 9.6 9.0 96 LegendMM 10 6   101.55     LegendNANA
12:00 10.1 9.1 94 LegendMM 10 6   101.48     LegendNANA
13:00 9.8 8.3 90 LegendMM 10 7   101.37     LegendNANA
14:00 10.2 8.6 90 LegendMM 4 5   101.36     LegendNANA
15:00 9.6 8.0 90 LegendMM 1 3   101.34     LegendNANA
16:00 9.3 7.9 91 LegendMM 7 2   101.27     LegendNANA
17:00 8.0 7.2 95 LegendMM 0 1   101.24     LegendNANA
18:00 6.6 6.1 96 LegendMM 26 1   101.18     LegendNANA
19:00 6.0 5.5 97 LegendMM   0   101.17     LegendNANA
20:00 5.5 5.1 97 LegendMM 26 1   101.15     LegendNANA
21:00 4.4 4.1 98 LegendMM 0 1   101.13     LegendNANA
22:00 5.4 5.1 98 LegendMM 25 1   101.13     LegendNANA
23:00 5.8 5.4 98 LegendMM 0 1   101.10     LegendNANA

Notes on Data Quality.

Legend

  • E = Estimated
  • M = Missing
  • NA = Not Available*
  • [empty] = Indicates an unobserved value
Date modified: